GW4557 Weather Reports


time (UTC)temp
F
wind
direction
speed
knots
gust
knots
rain 1hr
in
rain 24hr
in
rain mn
in
humidity
%
barometer
mb
20260507140704 64 172 5.2 8.7 0.00 0.01 0.01 59 1012.7
20260507140204 64 163 3.5 8.7 0.00 0.01 0.01 56 1012.8
20260507135704 64 165 3.5 8.7 0.00 0.01 0.01 59 1012.8
20260507135204 64 296 0.9 6.1 0.00 0.01 0.01 56 1012.9
20260507134704 65 67 2.6 7.8 0.00 0.01 0.01 57 1013.0
20260507134204 65 137 1.7 7.8 0.00 0.01 0.01 56 1013.1
20260507133704 66 141 3.5 8.7 0.00 0.01 0.01 57 1013.1
20260507133203 67 116 5.2 8.7 0.00 0.01 0.01 55 1013.1
20260507131704 66 51 3.5 7.0 0.00 0.01 0.01 58 1013.3
20260507131203 66 71 4.3 11.3 0.00 0.01 0.01 58 1013.3
20260507130704 67 78 4.3 11.3 0.00 0.01 0.01 56 1013.3
20260507130204 65 113 0.9 7.8 0.00 0.01 0.01 55 1013.3
20260507125704 65 72 2.6 6.1 0.00 0.01 0.01 56 1013.3
20260507125204 67 86 2.6 7.0 0.00 0.01 0.01 58 1013.3
20260507124704 64 114 3.5 7.0 0.00 0.01 0.01 58 1013.4
20260507124203 64 111 4.3 8.7 0.00 0.01 0.01 58 1013.4
20260507123704 64 60 4.3 8.7 0.00 0.01 0.01 59 1013.5
20260507123204 64 89 4.3 7.8 0.00 0.01 0.01 61 1013.5
20260507122204 64 76 1.7 7.8 0.00 0.01 0.01 61 1013.5
20260507121203 63 142 4.3 7.0 0.00 0.01 0.01 61 1013.6
20260507120704 64 142 4.3 8.7 0.00 0.01 0.01 61 1013.6
20260507115704 63 126 5.2 10.4 0.00 0.01 0.01 64 1013.7
20260507115203 64 167 7.0 10.4 0.00 0.01 0.01 61 1013.6
20260507114204 65 107 6.1 10.4 0.00 0.01 0.01 59 1013.7
20260507113704 65 125 5.2 10.4 0.00 0.01 0.01 60 1013.7
20260507113204 66 111 6.1 11.3 0.00 0.01 0.01 59 1013.7
20260507112704 66 123 6.1 11.3 0.00 0.01 0.01 59 1013.8
20260507112203 62 135 2.6 8.7 0.00 0.01 0.01 59 1013.9
20260507111704 63 145 4.3 10.4 0.00 0.01 0.01 60 1014.0
20260507110704 66 111 6.1 10.4 0.00 0.01 0.01 64 1014.0
20260507110204 66 138 7.0 10.4 0.00 0.01 0.01 60 1014.1
20260507105704 64 134 2.6 10.4 0.00 0.01 0.01 60 1014.1
20260507105204 64 117 2.6 12.2 0.00 0.01 0.01 58 1014.1
20260507104704 64 103 7.0 12.2 0.00 0.01 0.01 63 1014.2
20260507104204 62 62 2.6 5.2 0.00 0.01 0.01 65 1014.3
20260507103704 61 174 2.6 6.1 0.00 0.01 0.01 66 1014.3
20260507103204 62 181 4.3 6.1 0.00 0.01 0.01 64 1014.3
20260507102704 62 164 4.3 10.4 0.00 0.01 0.01 67 1014.4
20260507102204 61 113 2.6 10.4 0.00 0.01 0.01 66 1014.4
20260507101704 61 123 4.3 7.8 0.00 0.01 0.01 67 1014.4
20260507101204 62 111 4.3 7.8 0.00 0.01 0.01 67 1014.4
20260507100704 62 84 2.6 7.8 0.00 0.01 0.01 64 1014.4
20260507100204 63 100 5.2 7.8 0.00 0.01 0.01 66 1014.4
20260507095704 63 96 3.5 7.8 0.00 0.01 0.01 70 1014.4
20260507095204 63 123 4.3 7.8 0.00 0.01 0.01 65 1014.5
20260507094704 62 59 3.5 7.8 0.00 0.01 0.01 64 1014.4
20260507094204 62 91 2.6 7.0 0.00 0.01 0.01 70 1014.5
20260507093704 60 89 2.6 7.8 0.00 0.01 0.01 66 1014.4
20260507093204 61 97 2.6 10.4 0.00 0.01 0.01 66 1014.5
20260507092704 62 128 5.2 10.4 0.00 0.01 0.01 68 1014.5
20260507091704 62 157 4.3 6.1 0.00 0.01 0.01 70 1014.4
20260507091204 60 87 2.6 6.1 0.00 0.01 0.01 69 1014.4
20260507090204 60 113 2.6 5.2 0.00 0.01 0.01 71 1014.4
20260507085204 59 142 4.3 7.8 0.00 0.01 0.01 75 1014.4
20260507084704 60 160 4.3 7.8 0.00 0.01 0.01 76 1014.4
20260507084204 61 166 4.3 7.8 0.00 0.01 0.01 76 1014.4
20260507083203 59 166 4.3 7.0 0.00 0.01 0.01 76 1014.4
20260507082703 59 143 3.5 7.0 0.00 0.01 0.01 75 1014.4
20260507082205 59 147 5.2 7.0 0.00 0.01 0.01 78 1014.5
20260507081704 59 173 4.3 6.1 0.00 0.01 0.01 79 1014.5
20260507081204 58 167 3.5 6.1 0.00 0.01 0.01 79 1014.5
20260507080704 58 162 4.3 6.1 0.00 0.02 0.01 80 1014.5
20260507080204 58 137 3.5 6.1 0.00 0.02 0.01 80 1014.5
20260507075704 58 151 4.3 6.1 0.00 0.02 0.01 79 1014.5
20260507075204 58 145 3.5 6.1 0.00 0.02 0.01 80 1014.5
20260507074704 57 117 4.3 6.1 0.00 0.02 0.01 80 1014.4
20260507074204 57 135 2.6 6.1 0.00 0.02 0.01 83 1014.4
20260507072704 56 107 3.5 5.2 0.01 0.02 0.01 86 1014.2
20260507072204 56 91 1.7 5.2 0.01 0.02 0.01 87 1014.2
20260507071704 55 49 2.6 5.2 0.01 0.02 0.01 88 1014.2
20260507071206 55 94 2.6 5.2 0.01 0.02 0.01 89 1014.2
20260507070704 54 98 2.6 5.2 0.01 0.02 0.01 90 1014.3
20260507070204 54 88 2.6 5.2 0.01 0.02 0.01 90 1014.3
20260507065203 54 92 2.6 5.2 0.01 0.02 0.01 92 1014.2
20260507064704 53 153 1.7 4.3 0.01 0.02 0.01 92 1014.2
20260507063704 52 50 1.7 4.3 0.01 0.02 0.01 93 1014.0
20260507062704 51 44 2.6 2.6 0.00 0.01 0.00 93 1014.1
20260507062204 50 47 1.7 2.6 0.00 0.01 0.00 93 1014.1
20260507061703 50 55 1.7 1.7 0.00 0.01 0.00 93 1014.1
20260507061204 49 83 0.9 1.7 0.00 0.01 0.00 93 1014.0
20260507060704 49 159 0.9 1.7 0.00 0.01 0.00 93 1014.1
20260507055704 49 202 0.9 1.7 0.00 0.01 0.00 93 1014.0
20260507055204 48 196 0.9 0.9 0.00 0.01 0.00 93 1014.0
20260507054704 48 209 0.9 1.7 0.00 0.01 0.00 93 1014.0
20260507054203 48 166 0.9 2.6 0.00 0.01 0.00 93 1014.0
20260507053704 48 52 1.7 4.3 0.00 0.01 0.00 93 1013.9
20260507053204 49 46 2.6 4.3 0.00 0.01 0.00 93 1013.9
20260507052704 49 45 2.6 5.2 0.00 0.01 0.00 93 1013.9
20260507052204 49 43 2.6 5.2 0.00 0.01 0.00 93 1013.8
20260507051204 49 43 3.5 4.3 0.00 0.01 0.00 93 1013.8
20260507050703 49 35 3.5 4.3 0.00 0.01 0.00 93 1013.7
20260507050203 49 33 2.6 2.6 0.00 0.01 0.00 93 1013.6
20260507045704 49 37 2.6 2.6 0.00 0.01 0.00 93 1013.6
20260507045204 49 30 2.6 2.6 0.00 0.01 0.00 93 1013.7
20260507044704 49 19 1.7 1.7 0.00 0.01 0.00 93 1013.7
20260507044204 49 5 0.9 2.6 0.00 0.01 0.00 92 1013.7
20260507043204 49 27 1.7 2.6 0.00 0.01 0.00 92 1013.7
20260507042704 50 25 1.7 2.6 0.00 0.01 0.00 92 1013.6
20260507042204 50 17 1.7 2.6 0.00 0.01 0.00 92 1013.6
20260507041704 50 345 1.7 2.6 0.00 0.01 0.00 92 1013.6
20260507040204 50 24 1.7 4.3 0.00 0.01 0.00 91 1013.6
20260507035704 51 48 2.6 5.2 0.00 0.01 0.00 91 1013.6
20260507035204 51 55 4.3 5.2 0.00 0.01 0.00 91 1013.6
20260507034704 51 54 4.3 6.1 0.00 0.01 0.00 91 1013.6
20260507034204 51 56 4.3 6.1 0.00 0.01 0.00 91 1013.6
20260507033704 51 54 5.2 6.1 0.00 0.01 0.00 91 1013.6
20260507033204 51 53 4.3 6.1 0.00 0.01 0.00 91 1013.6
20260507032703 51 52 4.3 6.1 0.00 0.01 0.00 91 1013.6
20260507032203 51 49 4.3 5.2 0.00 0.01 0.00 91 1013.6
20260507031204 51 52 4.3 5.2 0.00 0.01 0.00 91 1013.6
20260507030704 52 52 4.3 5.2 0.00 0.01 0.00 91 1013.6
20260507030203 52 53 2.6 5.2 0.00 0.01 0.00 91 1013.5
20260507025704 52 50 3.5 5.2 0.00 0.01 0.00 91 1013.6
20260507025204 52 51 3.5 5.2 0.00 0.01 0.00 92 1013.5
20260507024704 52 46 3.5 5.2 0.00 0.01 0.00 92 1013.5
20260507024204 52 47 2.6 4.3 0.00 0.01 0.00 92 1013.5
20260507023704 52 53 2.6 4.3 0.00 0.01 0.00 92 1013.6
20260507023204 51 51 2.6 4.3 0.00 0.01 0.00 92 1013.6
20260507022704 51 52 4.3 5.2 0.00 0.01 0.00 92 1013.6
20260507021704 51 54 4.3 5.2 0.00 0.01 0.00 93 1013.5
20260507021204 51 52 4.3 5.2 0.00 0.01 0.00 93 1013.5
20260507020703 51 48 2.6 4.3 0.00 0.01 0.00 93 1013.5
20260507020204 51 54 2.6 4.3 0.00 0.01 0.00 93 1013.5
20260507015203 50 40 1.7 2.6 0.00 0.01 0.00 93 1013.5
20260507014204 50 74 0.9 1.7 0.00 0.01 0.00 93 1013.6
20260507013704 50 55 1.7 2.6 0.00 0.01 0.00 93 1013.6
20260507013204 50 53 1.7 2.6 0.00 0.01 0.00 93 1013.5
20260507012704 50 54 1.7 2.6 0.00 0.01 0.00 93 1013.5
20260507012204 50 37 1.7 2.6 0.00 0.01 0.00 93 1013.5
20260507011704 50 47 1.7 2.6 0.00 0.01 0.00 93 1013.6
20260507011203 50 21 1.7 4.3 0.00 0.01 0.00 93 1013.6
20260507010704 50 33 2.6 4.3 0.00 0.01 0.00 93 1013.6
20260507010203 50 28 2.6 4.3 0.00 0.01 0.00 93 1013.6
20260507005703 49 23 2.6 5.2 0.00 0.01 0.00 93 1013.7
20260507004704 49 353 4.3 4.3 0.00 0.01 0.00 93 1013.7
20260507004204 49 2 4.3 4.3 0.00 0.01 0.00 93 1013.8
20260507003704 49 20 2.6 4.3 0.00 0.01 0.00 93 1013.8
20260507003204 49 293 1.7 1.7 0.00 0.01 0.00 93 1013.8
20260507002703 49 284 1.7 1.7 0.00 0.01 0.00 93 1013.9
20260507002204 49 289 1.7 1.7 0.00 0.01 0.00 93 1013.9
20260507001704 49 245 0.9 0.9 0.00 0.01 0.00 93 1013.9
20260507001204 49 254 0.9 0.9 0.00 0.01 0.00 93 1014.0
20260507000704 49 256 0.9 0.9 0.00 0.01 0.00 93 1014.0
20260507000205 48 255 0.9 1.7 0.00 0.01 0.00 93 1014.0
20260506235204 48 255 1.7 1.7 0.00 0.01 0.01 93 1014.0
20260506234704 49 248 1.7 1.7 0.00 0.01 0.01 93 1014.0
20260506233703 48 153 0.0 0.9 0.00 0.01 0.01 93 1014.0
20260506233204 48 332 0.0 0.9 0.00 0.01 0.01 93 1014.0
20260506232704 48 329 0.9 1.7 0.00 0.01 0.01 93 1013.9
20260506231704 49 306 0.9 1.7 0.00 0.01 0.01 93 1013.9
20260506231204 49 318 1.7 1.7 0.00 0.01 0.01 93 1013.9
20260506230704 49 315 1.7 2.6 0.00 0.01 0.01 93 1014.0
20260506230205 49 306 1.7 2.6 0.00 0.01 0.01 93 1014.0
20260506225704 50 298 2.6 2.6 0.00 0.01 0.01 93 1014.0
20260506224704 50 299 1.7 1.7 0.00 0.01 0.01 92 1013.9
20260506224204 51 303 0.9 1.7 0.00 0.01 0.01 92 1013.9
20260506223704 51 324 0.9 1.7 0.00 0.01 0.01 92 1013.9
20260506222703 51 315 0.9 1.7 0.00 0.01 0.01 92 1013.9
20260506222203 52 327 0.9 1.7 0.00 0.01 0.01 92 1013.9
20260506221705 52 336 1.7 2.6 0.00 0.01 0.01 92 1013.9
20260506221204 52 345 1.7 2.6 0.00 0.01 0.01 92 1013.8
20260506220704 52 336 2.6 4.3 0.00 0.01 0.01 92 1013.8
20260506220203 52 335 2.6 4.3 0.00 0.01 0.01 92 1013.8
20260506215704 52 335 2.6 4.3 0.00 0.01 0.01 92 1013.8
20260506215204 52 338 1.7 4.3 0.00 0.01 0.01 92 1013.8
20260506214704 52 333 2.6 4.3 0.00 0.01 0.01 92 1013.9
20260506214204 52 329 2.6 4.3 0.00 0.01 0.01 92 1013.9
20260506213704 52 308 2.6 2.6 0.00 0.01 0.01 92 1013.9
20260506213204 53 299 1.7 2.6 0.00 0.01 0.01 91 1013.9
20260506212704 53 294 1.7 2.6 0.00 0.01 0.01 91 1013.9
20260506212204 53 286 1.7 2.6 0.00 0.01 0.01 91 1013.9
20260506211703 53 280 1.7 2.6 0.00 0.01 0.01 91 1013.8
20260506211204 53 276 2.6 2.6 0.00 0.01 0.01 91 1013.9
20260506210703 53 252 1.7 1.7 0.00 0.01 0.01 90 1013.8
20260506210204 53 264 0.9 1.7 0.00 0.01 0.01 90 1013.8
20260506205704 53 351 0.9 1.7 0.00 0.01 0.01 90 1013.7
20260506205204 54 11 0.9 1.7 0.00 0.01 0.01 90 1013.7
20260506203704 54 329 0.9 2.6 0.00 0.01 0.01 90 1013.6
20260506202704 54 337 1.7 2.6 0.00 0.01 0.01 89 1013.5
20260506202204 54 332 1.7 2.6 0.00 0.01 0.01 89 1013.4
20260506201704 54 330 1.7 2.6 0.00 0.01 0.01 89 1013.3
20260506201205 54 325 1.7 2.6 0.00 0.01 0.01 89 1013.3
20260506200703 54 320 1.7 2.6 0.00 0.01 0.01 88 1013.2
20260506200205 54 322 2.6 2.6 0.00 0.01 0.01 89 1013.1
20260506195704 54 316 2.6 2.6 0.00 0.01 0.01 89 1013.1
20260506195204 54 311 1.7 2.6 0.00 0.01 0.01 89 1013.1
20260506194704 54 308 1.7 2.6 0.00 0.01 0.01 89 1013.1
20260506193704 54 311 1.7 2.6 0.00 0.01 0.01 89 1013.0
20260506193204 54 312 1.7 2.6 0.00 0.01 0.01 89 1012.9
20260506192704 54 309 1.7 4.3 0.00 0.01 0.01 89 1012.9
20260506192204 54 303 1.7 4.3 0.00 0.01 0.01 89 1012.9
20260506191703 54 303 3.5 4.3 0.00 0.01 0.01 89 1012.8
20260506191203 54 296 3.5 4.3 0.00 0.01 0.01 88 1012.8
20260506190704 54 283 2.6 4.3 0.00 0.01 0.01 88 1012.7
20260506185703 54 279 2.6 4.3 0.00 0.01 0.01 87 1012.7
20260506185204 55 285 2.6 5.2 0.00 0.01 0.01 86 1012.7
20260506184204 55 292 4.3 7.8 0.00 0.01 0.01 84 1012.6
20260506183704 55 293 5.2 8.7 0.00 0.01 0.01 82 1012.6
20260506183204 55 305 6.1 8.7 0.00 0.01 0.01 81 1012.6
20260506182704 56 323 7.0 8.7 0.00 0.01 0.01 79 1012.5
20260506181703 57 324 7.0 8.7 0.00 0.01 0.01 77 1012.4
20260506181203 57 317 6.1 8.7 0.00 0.01 0.01 77 1012.3
20260506180704 57 311 6.1 7.8 0.00 0.01 0.01 77 1012.3
20260506180204 57 309 6.1 7.8 0.00 0.01 0.01 77 1012.3
20260506175704 57 311 5.2 7.8 0.00 0.01 0.01 76 1012.2
20260506175203 58 321 5.2 8.7 0.00 0.01 0.01 75 1012.2
20260506174704 58 327 5.2 8.7 0.00 0.01 0.01 75 1012.1
20260506174204 58 314 4.3 8.7 0.00 0.01 0.01 75 1012.2
20260506173704 58 327 5.2 7.8 0.00 0.01 0.01 76 1012.1
20260506173204 58 324 3.5 7.0 0.00 0.01 0.01 76 1012.1
20260506172704 58 329 5.2 7.8 0.00 0.01 0.01 76 1012.0
20260506172203 58 326 5.2 7.8 0.00 0.01 0.01 76 1012.0
20260506171704 58 339 5.2 8.7 0.00 0.01 0.01 75 1012.1
20260506171204 58 342 4.3 8.7 0.00 0.01 0.01 74 1012.1
20260506170704 58 340 5.2 7.8 0.00 0.01 0.01 74 1012.1
20260506170204 58 322 5.2 7.8 0.00 0.01 0.01 74 1012.0
20260506165703 58 332 3.5 7.0 0.00 0.01 0.01 74 1012.0
20260506165204 58 346 4.3 7.0 0.00 0.01 0.01 74 1011.9
20260506164704 58 328 4.3 7.0 0.00 0.01 0.01 76 1011.9
20260506164203 58 329 4.3 7.0 0.00 0.01 0.01 77 1011.9
20260506163704 57 334 4.3 7.0 0.00 0.01 0.01 77 1011.9
20260506163203 57 337 4.3 7.8 0.00 0.01 0.01 77 1011.9
20260506162704 57 331 5.2 7.8 0.00 0.01 0.01 78 1011.9
20260506162204 57 326 6.1 8.7 0.00 0.01 0.01 77 1011.8
20260506161704 57 335 6.1 11.3 0.00 0.01 0.01 77 1011.8
20260506161204 57 325 7.8 11.3 0.00 0.01 0.01 77 1011.9
20260506160703 57 331 7.0 10.4 0.00 0.01 0.01 77 1011.9
20260506160204 57 335 6.1 8.7 0.00 0.01 0.01 77 1011.9
20260506155704 57 337 5.2 11.3 0.00 0.01 0.01 78 1011.8
20260506155204 57 336 6.1 11.3 0.00 0.01 0.01 78 1011.8
20260506154204 57 351 6.1 11.3 0.00 0.01 0.01 78 1011.8
20260506153704 57 349 5.2 8.7 0.00 0.01 0.01 78 1011.7
20260506153204 57 345 5.2 8.7 0.00 0.01 0.01 78 1011.8
20260506152703 57 339 5.2 10.4 0.00 0.01 0.01 78 1011.8
20260506152204 57 346 5.2 10.4 0.00 0.01 0.01 78 1011.7
20260506151704 57 343 6.1 13.0 0.00 0.01 0.01 76 1011.7
20260506151204 57 353 7.8 13.0 0.00 0.01 0.01 74 1011.7
20260506150204 58 12 7.8 12.2 0.00 0.01 0.01 76 1011.6
20260506145703 58 0 7.8 12.2 0.00 0.01 0.01 76 1011.6
20260506144704 58 355 7.0 13.0 0.00 0.01 0.01 76 1011.6
20260506144203 57 331 7.8 13.0 0.00 0.01 0.01 78 1011.6
20260506143703 57 333 7.8 11.3 0.00 0.01 0.01 79 1011.6
20260506143204 57 332 6.1 12.2 0.00 0.01 0.01 79 1011.6
20260506142704 57 344 7.8 12.2 0.00 0.01 0.01 79 1011.6
20260506142203 57 341 7.8 12.2 0.00 0.01 0.01 79 1011.7
20260506141704 57 326 7.8 13.9 0.00 0.01 0.01 79 1011.6
20260506141204 57 356 7.0 13.9 0.00 0.01 0.01 79 1011.6